Location: Unspecified
(0.0000°N, 1.0000°E)
Time: 08:59:49
(UTC+02:00)

Amateur Radio Satellites - All Passes

Search period start: 24 June 2017 08:29
Search period end: 25 June 2017 08:29
Location: Unspecified, 0.0000°N, 1.0000°E

Satellite Date Start Highest point End Downlink Frequencies (MHz)
Time Altitude Azimuth
STRAND 1 24 Jun 08:30:10 08:34:46 34° 77° (ENE) 08:39:22 437.568
XW-2C 24 Jun 08:36:35 08:38:24 13° 281° (WNW) 08:40:14 145.795 - 145.815
CUTE-I 24 Jun 08:48:37 08:52:45 23° 283° (WNW) 08:56:53 437.470
UWE-3 24 Jun 08:56:12 08:58:52 16° 101° (E) 09:01:30 435.000/436.395/437.385
HO-68 24 Jun 08:57:04 09:04:12 80° 104° (ESE) 09:11:22 435.675
BEESAT 3 24 Jun 09:08:17 09:12:10 69° 69° (ENE) 09:15:58 437.485
AAUSAT CUBESAT 2 24 Jun 09:09:31 09:12:53 24° 102° (ESE) 09:16:15 437.432
XW-2A 24 Jun 09:18:49 09:22:04 50° 282° (WNW) 09:25:21 145.665 - 145.685
RS-15 24 Jun 09:20:30 09:32:05 86° 69° (ENE) 09:43:07 29.354- 29.394
NO-84 24 Jun 09:32:28 09:36:20 59° 239° (WSW) 09:39:55 435.350 FM
AO-85 24 Jun 09:37:37 09:41:21 23° 247° (WSW) 09:45:17 145.980
YUBILEINY 24 Jun 09:44:34 09:48:37 14° 87° (E) 09:52:39 435.215
SEEDS 24 Jun 09:47:54 09:51:31 29° 281° (WNW) 09:55:10 437.485
SRMSAT 24 Jun 09:49:24 09:52:45 15° 168° (SSE) 09:56:06 437.500
CUBEBUG 2 24 Jun 09:53:21 09:57:32 37° 282° (WNW) 10:01:36 437.445
JUGNU 24 Jun 09:55:46 10:01:33 56° 159° (SSE) 10:07:22 437.505
AO-73 24 Jun 09:56:08 10:00:15 47° 101° (ESE) 10:04:17 145.935
BEESAT 2 24 Jun 10:02:48 10:06:46 76° 248° (WSW) 10:10:41 435.950
CUTE 1.7 + AOD 2 24 Jun 10:04:38 10:05:19 10° 281° (WNW) 10:05:59 437.475
STRAND 1 24 Jun 10:11:07 10:13:39 14° 257° (WSW) 10:16:12 437.568
Oscar 11 24 Jun 10:25:16 10:29:32 87° 282° (WNW) 10:33:51 .
ZACube-1 24 Jun 10:30:01 10:34:08 44° 282° (WNW) 10:38:10 437.345
UWE-3 24 Jun 10:31:44 10:35:03 21° 282° (WNW) 10:38:19 435.000/436.395/437.385
O/OREOS (USA 219) 24 Jun 10:42:36 10:46:41 36° 256° (WSW) 10:50:49 437.305
EO-88 24 Jun 10:45:33 10:47:45 16° 102° (ESE) 10:49:58 145.990 - 145.960
AAUSAT CUBESAT 2 24 Jun 10:46:34 10:48:04 12° 281° (WNW) 10:49:34 437.432
TIGRISAT 24 Jun 10:52:16 10:55:22 19° 77° (ENE) 10:58:29 435.000
DELFI C3 24 Jun 10:52:29 10:56:09 37° 101° (ESE) 10:59:51 145.870
M-CUBED/EXP-1 PRIME 24 Jun 11:10:14 11:13:57 67° 253° (WSW) 11:17:25 437.505
PRISM 24 Jun 11:16:14 11:20:10 47° 78° (ENE) 11:24:04 437.425
UNISAT 6 24 Jun 11:32:26 11:36:52 80° 78° (ENE) 11:41:23 437.425
YUBILEINY 24 Jun 11:36:22 11:45:02 66° 267° (W) 11:53:40 435.215
SRMSAT 24 Jun 11:37:10 11:42:30 32° 161° (SSE) 11:47:49 437.500
RS-15 24 Jun 11:40:01 11:44:07 12° 247° (WSW) 11:48:12 29.354- 29.394
JUGNU 24 Jun 11:44:50 11:50:36 53° 339° (NNW) 11:56:25 437.505
FO-29 24 Jun 11:45:13 11:50:26 62° 258° (WSW) 11:56:07 435.910
EO-88 24 Jun 12:19:21 12:21:09 13° 281° (WNW) 12:22:59 145.990 - 145.960
ESTCUBE 1 24 Jun 12:28:28 12:32:11 26° 102° (ESE) 12:35:55 437.505/2401.250
TIGRISAT 24 Jun 12:28:38 12:31:46 19° 259° (WSW) 12:34:57 435.000
AIST 2D 24 Jun 12:38:19 12:41:44 44° 79° (E) 12:45:08 435.315
PCSat 24 Jun 12:41:39 12:47:00 66° 289° (WNW) 12:52:21 145.827
POLYITAN 1 24 Jun 12:43:00 12:46:03 19° 78° (ENE) 12:49:06 437.675
LO-87 24 Jun 12:45:57 12:49:34 74° 282° (WNW) 12:53:12 145.935 - 145.965
QB50P2 24 Jun 12:53:02 12:56:47 30° 78° (ENE) 13:00:30 145.880/145.840
SPROUT 24 Jun 13:12:26 13:15:19 18° 102° (ESE) 13:18:10 437.525
EO-79 24 Jun 13:17:42 13:21:52 65° 79° (E) 13:26:04 145.935-145.965
SRMSAT 24 Jun 13:25:45 13:31:48 86° 159° (SSE) 13:37:49 437.500
DUCHIFAT 1 24 Jun 13:33:43 13:37:55 86° 76° (ENE) 13:42:07 145.980
JUGNU 24 Jun 13:35:27 13:39:55 22° 344° (NNW) 13:44:24 437.505
NANOSAT C BR1 24 Jun 13:41:21 13:45:30 62° 258° (WSW) 13:49:39 145.865
ESTCUBE 1 24 Jun 14:06:28 14:08:42 14° 282° (WNW) 14:10:59 437.505/2401.250
VELOX 1 24 Jun 14:13:06 14:17:29 66° 282° (WNW) 14:21:55 145.980
POLYITAN 1 24 Jun 14:18:56 14:21:33 16° 258° (WSW) 14:24:12 437.675
50 SAT 24 Jun 14:20:16 14:23:37 62° 101° (ESE) 14:27:01 437.505
SO-50 24 Jun 14:34:37 14:39:17 85° 291° (WNW) 14:43:53 436.795
DX 1 24 Jun 14:38:02 14:42:22 65° 103° (ESE) 14:46:43 434.975-435.025
SPROUT 24 Jun 14:47:58 14:50:55 18° 282° (WNW) 14:53:54 437.525
BUGSAT 1 24 Jun 14:50:54 14:54:31 32° 258° (WSW) 14:58:09 437.445
UKube-1 24 Jun 14:58:31 15:02:49 77° 101° (E) 15:07:09 .
Oscar 19 24 Jun 15:01:19 15:06:31 77° 77° (ENE) 15:11:40 437.125/150
SRMSAT 24 Jun 15:15:39 15:21:04 35° 341° (NNW) 15:26:29 437.500
JUGNU 24 Jun 15:27:50 15:29:46 11° 353° (N) 15:31:43 437.505
AO-7 24 Jun 15:34:10 15:36:31 11° 72° (ENE) 15:38:52 .
ITUPSAT 1 24 Jun 15:40:05 15:41:56 12° 103° (ESE) 15:43:46 437.325
Gurwin Techsat 1B 24 Jun 15:41:59 15:47:15 65° 258° (WSW) 15:52:30 435.225
BEESAT 24 Jun 15:49:50 15:52:59 18° 103° (ESE) 15:56:08 436.000
SRMSAT 24 Jun 17:07:13 17:10:45 16° 347° (NNW) 17:14:15 437.500
MOZHAYETS 4 24 Jun 17:09:59 17:14:29 66° 281° (WNW) 17:19:00
ITAMSAT 1 24 Jun 17:14:33 17:19:42 68° 257° (WSW) 17:24:51 435.822/435.867
ITUPSAT 1 24 Jun 17:15:12 17:19:28 33° 282° (WNW) 17:23:45 437.325
JUGNU 24 Jun 17:19:30 17:20:00 10° 3° (N) 17:20:29 437.505
AO-7 24 Jun 17:20:30 17:28:48 79° 254° (WSW) 17:37:06 .
KKS-1 24 Jun 17:21:42 17:22:25 10° 103° (ESE) 17:23:08 437.445
BEESAT 24 Jun 17:26:44 17:30:29 23° 282° (WNW) 17:34:14 436.000
CUBESAT XI-V 24 Jun 17:47:01 17:51:22 42° 102° (ESE) 17:55:45 437.345
KKS-1 24 Jun 18:54:39 18:58:41 34° 282° (WNW) 19:02:44 437.445
XW-2C 24 Jun 18:56:04 18:58:09 14° 79° (ENE) 19:00:14 145.795 - 145.815
JUGNU 24 Jun 19:06:24 19:10:02 16° 13° (NNE) 19:13:40 437.505
DOVE 4 24 Jun 19:08:01 19:12:12 67° 79° (E) 19:16:18 437.250
Tancredo 1 24 Jun 19:10:36 19:13:36 89° 24° (NNE) 19:16:38 437.200
ISS 24 Jun 19:13:07 19:15:57 27° 54° (NE) 19:18:49 437.550
KAITUO 1B 24 Jun 19:13:12 19:15:55 19° 79° (E) 19:18:36 145.475/437.950
STARS 24 Jun 19:28:26 19:32:26 34° 282° (WNW) 19:36:26 437.465
CUTE-I 24 Jun 19:47:01 19:52:19 69° 77° (ENE) 19:57:34 437.470
NUDT-PHONESAT 24 Jun 19:49:52 19:53:38 76° 78° (ENE) 19:57:22 437.300
XW-2F 24 Jun 20:01:02 20:04:45 49° 258° (WSW) 20:08:28 145.980 - 146.000
XW-2D 24 Jun 20:04:07 20:07:44 39° 259° (WSW) 20:11:21 145.860 - 145.880
AO-85 24 Jun 20:10:36 20:14:44 32° 113° (ESE) 20:18:36 145.980
LilacSat-2 24 Jun 20:10:51 20:14:17 30° 259° (WSW) 20:17:43 437.200
XW-2B 24 Jun 20:13:17 20:16:41 30° 259° (WSW) 20:20:05 145.730 - 145.750
SEEDS 24 Jun 20:19:35 20:21:20 12° 79° (ENE) 20:23:03 437.485
XW-2C 24 Jun 20:29:29 20:32:04 17° 258° (WSW) 20:34:40 145.795 - 145.815
CUBEBUG 2 24 Jun 20:30:51 20:33:06 14° 77° (ENE) 20:35:21 437.445
CUTE 1.7 + AOD 2 24 Jun 20:32:09 20:36:05 36° 79° (ENE) 20:39:59 437.475
KAITUO 1B 24 Jun 20:47:54 20:49:38 13° 258° (WSW) 20:51:21 145.475/437.950
HO-68 24 Jun 20:48:41 20:55:49 68° 76° (ENE) 21:02:56 435.675
SRMSAT 24 Jun 20:49:25 20:51:19 11° 8° (N) 20:53:14 437.500
JUGNU 24 Jun 20:54:06 20:59:33 36° 19° (NNE) 21:04:57 437.505
BEESAT 3 24 Jun 20:59:46 21:03:36 68° 111° (ESE) 21:07:28 437.485
XW-2A 24 Jun 21:01:14 21:04:37 71° 79° (ENE) 21:08:01 145.665 - 145.685
RS-15 24 Jun 21:01:22 21:12:55 74° 110° (ESE) 21:25:00 29.354- 29.394
STRAND 1 24 Jun 21:02:11 21:07:19 88° 97° (E) 21:12:28 437.568
UWE-3 24 Jun 21:06:07 21:09:36 23° 78° (ENE) 21:13:08 435.000/436.395/437.385
ZACube-1 24 Jun 21:07:06 21:07:37 10° 78° (ENE) 21:08:08 437.345
AAUSAT CUBESAT 2 24 Jun 21:12:47 21:16:21 28° 79° (ENE) 21:19:53 437.432
O/OREOS (USA 219) 24 Jun 21:15:48 21:18:40 16° 105° (ESE) 21:21:32 437.305
NO-84 24 Jun 21:15:49 21:19:05 73° 302° (WNW) 21:22:40 435.350 FM
SEEDS 24 Jun 21:53:15 21:56:44 25° 258° (WSW) 22:00:12 437.485
AO-85 24 Jun 21:53:57 21:54:47 10° 290° (WNW) 21:55:37 145.980
BEESAT 2 24 Jun 21:55:41 21:59:32 73° 292° (WNW) 22:03:26 435.950
AO-73 24 Jun 22:04:58 22:09:21 67° 78° (ENE) 22:13:48 145.935
CUBEBUG 2 24 Jun 22:05:51 22:09:25 25° 259° (W) 22:13:03 437.445
YUBILEINY 24 Jun 22:14:41 22:22:05 31° 93° (E) 22:29:27 435.215
Oscar 11 24 Jun 22:33:56 22:38:15 64° 258° (WSW) 22:42:33 .
EO-88 24 Jun 22:36:34 22:37:32 11° 79° (ENE) 22:38:29 145.990 - 145.960
SRMSAT 24 Jun 22:36:47 22:41:17 22° 16° (NNE) 22:45:46 437.500
ZACube-1 24 Jun 22:39:36 22:43:35 33° 259° (W) 22:47:37 437.345
HO-68 24 Jun 22:40:46 22:43:08 12° 254° (WSW) 22:45:31 435.675
JUGNU 24 Jun 22:42:41 22:48:39 83° 201° (SSW) 22:54:34 437.505
UWE-3 24 Jun 22:43:13 22:45:47 15° 259° (W) 22:48:23 435.000/436.395/437.385
AAUSAT CUBESAT 2 24 Jun 22:50:45 22:51:31 10° 258° (WSW) 22:52:17 437.432
DELFI C3 24 Jun 22:50:48 22:54:25 35° 79° (E) 22:58:01 145.870
O/OREOS (USA 219) 24 Jun 22:54:17 22:57:48 22° 284° (WNW) 23:01:18 437.305
TIGRISAT 24 Jun 23:04:45 23:08:35 28° 101° (ESE) 23:12:22 435.000
M-CUBED/EXP-1 PRIME 24 Jun 23:07:46 23:11:55 79° 286° (WNW) 23:16:24 437.505
FO-29 24 Jun 23:16:45 23:24:29 74° 103° (ESE) 23:31:36 435.910
RS-15 24 Jun 23:17:53 23:25:14 19° 294° (WNW) 23:32:49 29.354- 29.394
PRISM 24 Jun 23:18:30 23:22:31 51° 102° (ESE) 23:26:33 437.425
PCSat 24 Jun 23:35:37 23:40:01 25° 70° (ENE) 23:44:24 145.827
UNISAT 6 24 Jun 23:45:49 23:50:18 66° 282° (WNW) 23:54:42 437.425
EO-88 25 Jun 00:08:13 00:10:56 20° 259° (WSW) 00:13:39 145.990 - 145.960
YUBILEINY 25 Jun 00:10:53 00:18:27 34° 273° (W) 00:26:06 435.215
AIST 2D 25 Jun 00:24:44 00:27:37 24° 101° (E) 00:30:30 435.315
SRMSAT 25 Jun 00:24:56 00:30:42 55° 21° (NNE) 00:36:29 437.500
JUGNU 25 Jun 00:32:37 00:37:45 31° 199° (SSW) 00:42:53 437.505
LO-87 25 Jun 00:33:58 00:37:28 65° 79° (ENE) 00:40:58 145.935 - 145.965
ESTCUBE 1 25 Jun 00:42:01 00:46:17 40° 78° (ENE) 00:50:30 437.505/2401.250
TIGRISAT 25 Jun 00:43:03 00:44:58 13° 283° (WNW) 00:46:52 435.000
POLYITAN 1 25 Jun 00:48:48 00:52:12 24° 102° (ESE) 00:55:35 437.675
QB50P2 25 Jun 00:59:01 01:02:56 38° 102° (ESE) 01:06:52 145.880/145.840
FO-29 25 Jun 01:06:04 01:08:50 12° 286° (WNW) 01:11:33 435.910
SPROUT 25 Jun 01:19:04 01:22:20 22° 78° (ENE) 01:25:36 437.525
PCSat 25 Jun 01:19:09 01:23:07 21° 250° (WSW) 01:27:07 145.827
EO-79 25 Jun 01:23:37 01:27:51 81° 103° (ESE) 01:32:05 145.935-145.965
DUCHIFAT 1 25 Jun 01:38:58 01:43:11 79° 280° (W) 01:47:23 145.980
NANOSAT C BR1 25 Jun 01:46:59 01:51:05 50° 282° (WNW) 01:55:11 145.865
Oscar 19 25 Jun 01:59:21 02:01:02 12° 103° (ESE) 02:02:43 437.125/150
50 SAT 25 Jun 02:03:55 02:06:55 29° 79° (ENE) 02:09:53 437.505
SRMSAT 25 Jun 02:14:08 02:19:54 53° 201° (SSW) 02:25:41 437.500
JUGNU 25 Jun 02:24:17 02:27:19 14° 192° (SSW) 02:30:21 437.505
VELOX 1 25 Jun 02:24:51 02:29:02 44° 258° (WSW) 02:33:11 145.980
POLYITAN 1 25 Jun 02:25:42 02:27:43 13° 282° (WNW) 02:29:43 437.675
Gurwin Techsat 1B 25 Jun 02:41:51 02:45:59 23° 103° (ESE) 02:50:07 435.225
SO-50 25 Jun 02:47:17 02:51:39 44° 248° (WSW) 02:56:06 436.795
DX 1 25 Jun 02:47:39 02:52:00 89° 77° (ENE) 02:56:18 434.975-435.025
BUGSAT 1 25 Jun 02:53:51 02:57:31 30° 282° (WNW) 03:01:10 437.445
SPROUT 25 Jun 02:55:38 02:57:58 14° 258° (WSW) 03:00:17 437.525
UKube-1 25 Jun 03:06:56 03:11:15 80° 259° (W) 03:15:31 .
Oscar 19 25 Jun 03:35:16 03:40:02 41° 283° (WNW) 03:44:51 437.125/150
AO-7 25 Jun 03:56:50 04:02:48 22° 107° (ESE) 04:08:43 .
ITUPSAT 1 25 Jun 04:00:18 04:04:09 24° 77° (ENE) 04:07:59 437.325
SRMSAT 25 Jun 04:04:54 04:09:21 22° 196° (SSW) 04:13:49 437.500
BEESAT 25 Jun 04:10:31 04:14:49 34° 78° (ENE) 04:19:06 436.000
ITAMSAT 1 25 Jun 04:11:45 04:15:28 20° 103° (ESE) 04:19:10 435.822/435.867
Gurwin Techsat 1B 25 Jun 04:21:35 04:25:39 23° 283° (WNW) 04:29:44 435.225
MOZHAYETS 4 25 Jun 05:26:50 05:31:09 38° 258° (WSW) 05:35:27
KKS-1 25 Jun 05:32:14 05:34:49 15° 78° (ENE) 05:37:23 437.445
ITUPSAT 1 25 Jun 05:38:32 05:41:42 18° 257° (WSW) 05:44:51 437.325
AO-7 25 Jun 05:47:12 05:55:09 50° 286° (WNW) 06:03:09 .
ITAMSAT 1 25 Jun 05:50:24 05:54:38 26° 283° (WNW) 05:58:54 435.822/435.867
BEESAT 25 Jun 05:50:27 05:52:17 12° 257° (WSW) 05:54:08 436.000
SRMSAT 25 Jun 05:57:27 05:59:22 11° 187° (S) 06:01:17 437.500
STARS 25 Jun 06:04:51 06:07:07 14° 78° (ENE) 06:09:21 437.465
CUBESAT XI-V 25 Jun 06:05:01 06:09:43 78° 79° (ENE) 06:14:22 437.345
JUGNU 25 Jun 06:05:20 06:07:34 12° 171° (S) 06:09:47 437.505
Tancredo 1 25 Jun 06:38:18 06:41:06 35° 125° (SE) 06:43:53 437.200
ISS 25 Jun 06:47:41 06:49:55 17° 126° (SE) 06:52:07 437.550
CUTE-I 25 Jun 06:49:28 06:51:50 13° 103° (ESE) 06:54:11 437.470
XW-2C 25 Jun 06:50:54 06:51:44 11° 102° (ESE) 06:52:34 145.795 - 145.815
KAITUO 1B 25 Jun 07:06:10 07:08:02 13° 102° (ESE) 07:09:54 145.475/437.950
KKS-1 25 Jun 07:07:39 07:11:06 23° 258° (WSW) 07:14:33 437.445
DOVE 4 25 Jun 07:27:10 07:32:18 65° 282° (WNW) 07:37:34 437.250
STARS 25 Jun 07:39:40 07:43:10 24° 258° (WSW) 07:46:41 437.465
NUDT-PHONESAT 25 Jun 07:41:23 07:44:57 52° 101° (E) 07:48:31 437.300
SRMSAT 25 Jun 07:49:14 07:49:45 10° 177° (S) 07:50:15 437.500
JUGNU 25 Jun 07:52:35 07:57:17 24° 163° (SSE) 08:01:59 437.505
XW-2F 25 Jun 07:54:11 07:57:51 65° 281° (W) 08:01:33 145.980 - 146.000
XW-2D 25 Jun 07:57:38 08:01:15 50° 281° (WNW) 08:04:53 145.860 - 145.880
STRAND 1 25 Jun 07:58:41 08:01:01 13° 77° (ENE) 08:03:21 437.568
LilacSat-2 25 Jun 08:05:03 08:08:30 36° 281° (W) 08:11:59 437.200
XW-2B 25 Jun 08:06:45 08:10:14 37° 281° (W) 08:13:42 145.730 - 145.750
XW-2C 25 Jun 08:22:49 08:25:39 21° 281° (W) 08:28:29 145.795 - 145.815
SEEDS 25 Jun 08:24:03 08:26:19 14° 102° (ESE) 08:28:34 437.485
ISS 25 Jun 08:24:26 08:26:11 14° 306° (NW) 08:27:57 437.550
